Regional Weather Roundup
Issued by NWS Huntsville, AL

Home | Current Version | Previous Version | Text Only | Print | Product List | Glossary On
Versions: 1 2 3 4 5 6 7 8 9 10 11 12 13 14 15 16 17 18 19 20 21 22 23 24 25 26 27 28 29 30 31 32 33 34 35 36 37 38 39 40 41 42 43 44 45 46 47 48 49 50
000
ASUS44 KHUN 231510
RWRHUN

WEATHER ROUNDUP FOR THE TENNESSEE VALLEY
NATIONAL WEATHER SERVICE HUNTSVILLE AL
1000 AM CDT SAT JUL 23 2016

ALZ001>004-231600-
NORTHWEST ALABAMA

CITY           SKY/WX    TMP DP  RH WIND       PRES   REMARKS
COURTLAND HCN    N/A     84 N/A N/A CALM        N/A
RUSSELLVILLE     N/A     84 N/A N/A MISG        N/A
SHOALS AIRPORT MOSUNNY   84  74  71 CALM      30.02F HX  91
SHOALS TVA RES   N/A     82 N/A N/A MISG        N/A
$$

ALZ005>007-016-231600-
NORTH CENTRAL ALABAMA

CITY           SKY/WX    TMP DP  RH WIND       PRES   REMARKS
CULLMAN AG STN   N/A     84 N/A N/A CALM        N/A
DECATUR AP     SUNNY     85  72  65 CALM      30.02F HX  91
HUNTSVILLE AP  MOSUNNY   88  69  53 VRB5      30.02F HX  92
HUN NWS/UAH      N/A     88  68  51 SW5         N/A  HX  91
MERIDIANVILLE  SUNNY     84  64  51 SW3       30.03F
REDSTONE ARSN  SUNNY     85  75  70 S6        30.02S HX  93
VINEMONT AP    FAIR      86  73  65 S3        30.07S HX  92
$$

ALZ008>010-231600-
NORTHEAST ALABAMA

CITY           SKY/WX    TMP DP  RH WIND       PRES   REMARKS
ALBERTVILLE    SUNNY     86  79  79 S3        30.05S HX  99
FORT PAYNE     SUNNY     82  70  65 CALM      30.05S
SCOTTSBORO AP  SUNNY     86  75  70 S3        30.04S HX  95
SCOTTSBORO HCN   N/A     84 N/A N/A MISG        N/A
VALLEY HEAD      N/A     81 N/A N/A MISG        N/A
$$

TNZ076-096-097-231600-
SOUTHEASTERN MIDDLE TENNESSEE

CITY           SKY/WX    TMP DP  RH WIND       PRES   REMARKS
TULLAHOMA      SUNNY     88  72  58 VRB6      30.06S HX  94
WINCHESTER     SUNNY     88  72  58 W3        30.04S HX  94
$$

...SURROUNDING SITES...

CITY           SKY/WX    TMP DP  RH WIND       PRES   REMARKS
ATLANTA        CLOUDY    86  74  67 SW6       30.07R HX  94
ANNISTON       MOSUNNY   86  75  69 W5        30.04S HX  95
BIRMINGHAM     MOSUNNY   88  74  63 S6        30.05S HX  96
CHATTANOOGA    PTSUNNY   86  72  62 CALM      30.04S HX  92
DALTON         CLOUDY    81  75  83 CALM      30.04S
GADSDEN        SUNNY     86  77  74 CALM      30.04S HX  97
GOLDEN TRNGL   MOSUNNY   84  73  70 S5        30.01S HX  91
HALEYVILLE     FAIR      84  72  67 S6        30.05F
JACKSON TN     CLOUDY    83  75  77 S6        30.01F HX  90
MEMPHIS        CLOUDY    81  72  74 S13       30.01R
NASHVILLE      CLOUDY    85  75  72 CALM      30.03S HX  93
OXFORD MS      FAIR      75  73  94 N9        30.07R
ROME           CLOUDY    84  74  71 CALM      30.04R HX  91
SAVANNAH       SUNNY     84  75  74 CALM      30.01S HX  92
TUPELO         LGT RAIN  80  74  81 SW3       30.00F
TUSCALOOSA     MOSUNNY   83  76  79 SW5       30.02F HX  91
$$

...GULF COAST WEATHER...

CITY           SKY/WX    TMP DP  RH WIND       PRES   REMARKS
GULFPORT       CLOUDY    86  76  71 CALM      30.01S HX  96
PASCAGOULA     CLOUDY    85  78  80 CALM      30.02S HX  96
MOBILE         MOSUNNY   85  75  72 CALM      30.03S HX  93
GULF SHORES    MOSUNNY   85  76  75 CALM      30.02S HX  94
PENSACOLA      PTSUNNY   87  73  62 S7        30.01S HX  94
DESTIN         PTSUNNY   84  78  82 CALM      30.04R HX  95
PANAMA CITY    SUNNY     86  72  63 E6        30.03S HX  92
APPALACHICOLA  MOSUNNY   88  76  67 E6        30.03S HX  99
$$




USA.gov is the U.S. government's official web portal to all federal, state and local government web resources and services.